Tracking 31027 objects as of 19-Jul-2025
HD Live streaming from Space Station
objects crossing your sky now

FENGYUN 1C DEB

Track FENGYUN 1C DEB now!
10-day predictions


NORAD ID: 35167
Int'l Code: 1999-025DMX
Perigee: 632.2 km
Apogee: 963.2 km
Inclination: 98.4 °
Period: 100.7 minutes
Semi major axis: 7168 km
RCS: 0.0088 m2 (small)
Launch date: May 10, 1999
Source: People's Republic of China (PRC)
Launch site: Taiyaun Space Center, China (TSC)

Note: This is SATELLITE DEBRIS
Your satellite tracking list
MAROC TUBSAT
Track 1 satellite(s)




NASA's NSSDC Master Catalog

Two Line Element Set (TLE):
1 35167U 99025DMX 25198.20984559  .00000887  00000-0  27043-3 0  9996
2 35167  98.4394 195.4979 0230846 283.7464  73.8123 14.30359815877300
Source of the keplerian elements: AFSPC